Location: Lecco
(45.8566°N, 9.3977°E)
Time: 04:52:45
(UTC+02:00)

Transit 4A - Pass Details

Date: 23 August 2020
Orbit: 863 x 982 km, 66.8° (Epoch: 23 September)

Event Time Altitude Azimuth Distance (km) Brightness Sun altitude
Rises 05:56:03 0° 153° (SSE) 3,492 11.0 -6.8°
Reaches altitude 10° 05:59:58 10° 127° (SE) 2,584 10.7 -6.2°
Maximum altitude 06:02:37 13° 101° (E) 2,378 11.0 -5.7°
Drops below altitude 10° 06:05:19 10° 74° (ENE) 2,630 12.1 -5.3°
Sets 06:09:21 0° 49° (NE) 3,609 12.6 -4.6°
